,,Stat5,,Stat1,,Stat2,,Stat3,,Stat4,,Wind1,,Wind1,
time,status,PA1M_AVG,status,PR1M_SUM,status,RH1M_AVG,status,SR1M_AVG,status,TA1M_AVG,status,W1dAve1m,status,W1sAve1m,
2000-08-28, 00:00:01,VALID,919.378,VALID,0,VALID,93.332,VALID,-0.0339617,VALID,19.4644,VALID,275,VALID,0,
2000-08-28, 00:01:00,VALID,919.348,VALID,0,VALID,92.7076,VALID,0,VALID,19.3901,VALID,275,VALID,0,
2000-08-28, 00:02:00,VALID,919.338,VALID,0,VALID,93.2239,VALID,-0.0339617,VALID,19.3023,VALID,275,VALID,0,
2000-08-28, 00:03:00,VALID,919.316,VALID,0,VALID,93.7452,VALID,0,VALID,19.2251,VALID,214,VALID,0,
2000-08-28, 00:04:00,VALID,919.314,VALID,0,VALID,93.9411,VALID,0,VALID,19.118,VALID,102,VALID,0,
2000-08-28, 00:05:00,VALID,919.28,VALID,0,VALID,95.0486,VALID,0,VALID,19.0795,VALID,97,VALID,0,
2000-08-28, 00:06:00,VALID,919.257,VALID,0,VALID,95.3513,VALID,-0.0169808,VALID,19.0931,VALID,100,VALID,0,
2000-08-28, 00:07:00,VALID,919.225,VALID,0,VALID,95.8675,VALID,-0.0169808,VALID,19.1411,VALID,77,VALID,0,
2000-08-28, 00:08:00,VALID,919.212,VALID,0,VALID,95.673,VALID,0.0169808,VALID,19.157,VALID,80,VALID,0,
2000-08-28, 00:09:00,VALID,919.204,VALID,0,VALID,95.4746,VALID,-0.0169808,VALID,19.1893,VALID,88,VALID,0,
2000-08-28, 00:10:00,VALID,919.205,VALID,0,VALID,95.1287,VALID,0,VALID,19.1828,VALID,88,VALID,0,
2000-08-28, 00:11:00,VALID,919.207,VALID,0,VALID,94.9723,VALID,0,VALID,19.1669,VALID,88,VALID,0,
2000-08-28, 00:12:00,VALID,919.208,VALID,0,VALID,95.1249,VALID,-0.0169808,VALID,19.1639,VALID,88,VALID,0,
2000-08-28, 00:13:00,VALID,919.19,VALID,0,VALID,95.158,VALID,-0.0339617,VALID,19.1508,VALID,88,VALID,0,
2000-08-28, 00:14:00,VALID,919.153,VALID,0,VALID,94.6404,VALID,-0.118866,VALID,19.1266,VALID,103,VALID,0,
2000-08-28, 00:15:00,VALID,919.134,VALID,0,VALID,94.5832,VALID,-0.0849042,VALID,19.0779,VALID,102,VALID,0,
2000-08-28, 00:16:00,VALID,919.108,VALID,0,VALID,94.9316,VALID,-0.101885,VALID,19.0652,VALID,102,VALID,0,
2000-08-28, 00:17:00,VALID,919.103,VALID,0,VALID,95.1745,VALID,-0.101885,VALID,19.0454,VALID,102,VALID,0,
2000-08-28, 00:18:00,VALID,919.097,VALID,0,VALID,95.3246,VALID,-0.118866,VALID,19.0585,VALID,102,VALID,0,
2000-08-28, 00:19:00,VALID,919.101,VALID,0,VALID,95.1287,VALID,-0.101885,VALID,19.0399,VALID,101,VALID,0,
2000-08-28, 00:20:00,VALID,919.103,VALID,0,VALID,95.4238,VALID,-0.101885,VALID,19.0138,VALID,95,VALID,0.306743,
2000-08-28, 00:21:00,VALID,919.123,VALID,0,VALID,95.9171,VALID,-0.118866,VALID,19.0066,VALID,89,VALID,1.0109,
2000-08-28, 00:22:00,VALID,919.133,VALID,0,VALID,96.1867,VALID,-0.101885,VALID,19.0299,VALID,96,VALID,0.779297,
2000-08-28, 00:23:00,VALID,919.147,VALID,0,VALID,96.0227,VALID,-0.0849042,VALID,19.0327,VALID,86,VALID,0.988176,
2000-08-28, 00:24:00,VALID,919.136,VALID,0,VALID,95.9527,VALID,-0.101885,VALID,19.0491,VALID,90,VALID,0.704687,
2000-08-28, 00:25:00,VALID,919.122,VALID,0,VALID,95.8434,VALID,-0.0849042,VALID,19.0615,VALID,92,VALID,0.646998,
2000-08-28, 00:26:00,VALID,919.116,VALID,0,VALID,95.5891,VALID,-0.101885,VALID,19.0585,VALID,80,VALID,0.770904,
2000-08-28, 00:27:00,VALID,919.104,VALID,0,VALID,95.7251,VALID,-0.101885,VALID,19.0874,VALID,83,VALID,0.921258,
2000-08-28, 00:28:00,VALID,919.082,VALID,0,VALID,95.5903,VALID,-0.0339617,VALID,19.1416,VALID,88,VALID,0.984786,
2000-08-28, 00:29:00,VALID,919.084,VALID,0,VALID,95.6641,VALID,-0.0169808,VALID,19.1537,VALID,86,VALID,0.873438,
2000-08-28, 00:30:00,VALID,919.055,VALID,0,VALID,95.4784,VALID,-0.0169808,VALID,19.1863,VALID,90,VALID,0.612253,
2000-08-28, 00:31:00,VALID,919.033,VALID,0,VALID,95.2343,VALID,0.0169808,VALID,19.1895,VALID,90,VALID,0.485894,
2000-08-28, 00:32:00,VALID,919.016,VALID,0,VALID,95.0563,VALID,0,VALID,19.1627,VALID,88,VALID,0.644848,
2000-08-28, 00:33:00,VALID,918.991,VALID,0,VALID,94.8057,VALID,-0.0169808,VALID,19.1595,VALID,95,VALID,0.87859,
2000-08-28, 00:34:00,VALID,918.984,VALID,0,VALID,94.8083,VALID,0,VALID,19.157,VALID,90,VALID,0.816176,
2000-08-28, 00:35:00,VALID,918.951,VALID,0,VALID,94.8846,VALID,0,VALID,19.1637,VALID,96,VALID,0.696484,
2000-08-28, 00:36:00,VALID,918.923,VALID,0,VALID,95.0219,VALID,-0.0169808,VALID,19.1634,VALID,93,VALID,0.625,
2000-08-28, 00:37:00,VALID,918.905,VALID,0,VALID,94.8859,VALID,0,VALID,19.15,VALID,108,VALID,0.51213,
2000-08-28, 00:38:00,VALID,918.894,VALID,0,VALID,94.3569,VALID,-0.0169808,VALID,19.1406,VALID,113,VALID,0.427837,
2000-08-28, 00:39:00,VALID,918.895,VALID,0,VALID,93.8788,VALID,0,VALID,19.1736,VALID,113,VALID,0.62793,
2000-08-28, 00:40:00,VALID,918.893,VALID,0,VALID,93.5926,VALID,-0.0339617,VALID,19.1995,VALID,106,VALID,0.581003,
2000-08-28, 00:41:00,VALID,918.877,VALID,0,VALID,93.454,VALID,0,VALID,19.1987,VALID,110,VALID,0.151727,
2000-08-28, 00:42:00,VALID,918.863,VALID,0,VALID,93.2582,VALID,-0.0339617,VALID,19.1766,VALID,110,VALID,0.374155,
2000-08-28, 00:43:00,VALID,918.842,VALID,0,VALID,93.365,VALID,0,VALID,19.1316,VALID,112,VALID,0.249132,
2000-08-28, 00:44:00,VALID,918.824,VALID,0,VALID,93.4782,VALID,0,VALID,19.0628,VALID,115,VALID,0.0913628,
2000-08-28, 00:45:00,VALID,918.807,VALID,0,VALID,93.6499,VALID,-0.0339617,VALID,19.0121,VALID,90,VALID,0.556593,
2000-08-28, 00:46:00,VALID,918.783,VALID,0,VALID,93.9652,VALID,0,VALID,18.9664,VALID,99,VALID,0.435389,
2000-08-28, 00:47:00,VALID,918.759,VALID,0,VALID,94.1318,VALID,-0.0169808,VALID,18.947,VALID,99,VALID,0.302632,
2000-08-28, 00:48:00,VALID,918.737,VALID,0,VALID,94.2628,VALID,0.0169808,VALID,18.9376,VALID,98,VALID,0.0641447,
2000-08-28, 00:49:00,VALID,918.725,VALID,0,VALID,94.2818,VALID,-0.0169808,VALID,18.9477,VALID,94,VALID,0,
2000-08-28, 00:50:00,VALID,918.707,VALID,0,VALID,94.072,VALID,0.0169808,VALID,18.9378,VALID,94,VALID,0,
2000-08-28, 00:51:00,VALID,918.7,VALID,0,VALID,94.0975,VALID,-0.0169808,VALID,18.9053,VALID,94,VALID,0,
2000-08-28, 00:52:00,VALID,918.691,VALID,0,VALID,94.3353,VALID,0,VALID,18.8891,VALID,94,VALID,0,
2000-08-28, 00:53:00,VALID,918.683,VALID,0,VALID,94.498,VALID,0,VALID,18.8794,VALID,94,VALID,0,
2000-08-28, 00:54:00,VALID,918.684,VALID,0,VALID,94.203,VALID,0,VALID,18.8896,VALID,94,VALID,0,
2000-08-28, 00:55:00,VALID,918.67,VALID,0,VALID,93.9868,VALID,0,VALID,18.8471,VALID,96,VALID,0.173109,
2000-08-28, 00:56:00,VALID,918.653,VALID,0,VALID,93.9818,VALID,-0.0169808,VALID,18.8215,VALID,100,VALID,0.84565,
2000-08-28, 00:57:00,VALID,918.635,VALID,0,VALID,93.7351,VALID,-0.0339617,VALID,18.8374,VALID,111,VALID,1.01686,
2000-08-28, 00:58:00,VALID,918.626,VALID,0,VALID,93.3523,VALID,-0.0169808,VALID,18.8282,VALID,110,VALID,0.936233,
2000-08-28, 00:59:00,VALID,918.615,VALID,0,VALID,93.1565,VALID,0,VALID,18.818,VALID,106,VALID,0.884961,
2000-08-28, 01:00:00,VALID,918.619,VALID,0,VALID,93.2277,VALID,0,VALID,18.7954,VALID,107,VALID,0.671258,
2000-08-28, 01:01:00,VALID,918.635,VALID,0,VALID,93.3116,VALID,-0.0169808,VALID,18.7887,VALID,101,VALID,0.45855,
2000-08-28, 01:02:00,VALID,918.641,VALID,0,VALID,93.2964,VALID,0,VALID,18.792,VALID,100,VALID,0.0164696,
2000-08-28, 01:03:00,VALID,918.642,VALID,0,VALID,93.3714,VALID,0,VALID,18.7793,VALID,100,VALID,0,
2000-08-28, 01:04:00,VALID,918.638,VALID,0,VALID,93.2836,VALID,-0.0169808,VALID,18.7952,VALID,97,VALID,0,
2000-08-28, 01:05:00,VALID,918.63,VALID,0,VALID,93.1132,VALID,0.0169808,VALID,18.831,VALID,97,VALID,0,
2000-08-28, 01:06:00,VALID,918.623,VALID,0,VALID,93.0039,VALID,0,VALID,18.8404,VALID,107,VALID,0,
2000-08-28, 01:07:00,VALID,918.61,VALID,0,VALID,92.7992,VALID,-0.0169808,VALID,18.8893,VALID,103,VALID,0,
2000-08-28, 01:08:00,VALID,918.603,VALID,0,VALID,92.6911,VALID,0,VALID,18.8926,VALID,77,VALID,0.20148,
2000-08-28, 01:09:00,VALID,918.602,VALID,0,VALID,92.6199,VALID,0,VALID,18.909,VALID,68,VALID,0.874023,
2000-08-28, 01:10:00,VALID,918.593,VALID,0,VALID,92.3439,VALID,-0.0339617,VALID,18.9574,VALID,82,VALID,0.639597,
2000-08-28, 01:11:00,VALID,918.556,VALID,0,VALID,92.0642,VALID,-0.0169808,VALID,18.9959,VALID,81,VALID,0.682977,
2000-08-28, 01:12:00,VALID,918.513,VALID,0,VALID,91.8798,VALID,0,VALID,19.0153,VALID,57,VALID,0.741132,
2000-08-28, 01:13:00,VALID,918.481,VALID,0,VALID,92.0209,VALID,0,VALID,19.0377,VALID,43,VALID,0.208767,
2000-08-28, 01:14:00,VALID,918.441,VALID,0,VALID,92.2002,VALID,0,VALID,19.0248,VALID,35,VALID,0.00130208,
2000-08-28, 01:15:00,VALID,918.426,VALID,0,VALID,92.101,VALID,-0.0339617,VALID,19.0126,VALID,67,VALID,0.372904,
2000-08-28, 01:16:00,VALID,918.405,VALID,0,VALID,91.7704,VALID,-0.0169808,VALID,19.0248,VALID,78,VALID,0.343328,
2000-08-28, 01:17:00,VALID,918.396,VALID,0,VALID,91.6751,VALID,0,VALID,18.9994,VALID,80,VALID,0,
2000-08-28, 01:18:00,VALID,918.397,VALID,0,VALID,92.4813,VALID,-0.0169808,VALID,18.9793,VALID,80,VALID,0.0281661,
2000-08-28, 01:19:00,VALID,918.37,VALID,0,VALID,93.2048,VALID,-0.0169808,VALID,18.98,VALID,82,VALID,0.0455412,
2000-08-28, 01:20:00,VALID,918.353,VALID,0,VALID,92.9428,VALID,-0.0169808,VALID,18.9577,VALID,93,VALID,0.0859375,
2000-08-28, 01:21:00,VALID,918.344,VALID,0,VALID,92.5512,VALID,-0.0169808,VALID,18.8993,VALID,105,VALID,0.266036,
2000-08-28, 01:22:00,VALID,918.338,VALID,0,VALID,92.6326,VALID,-0.0679233,VALID,18.8741,VALID,99,VALID,0.415148,
2000-08-28, 01:23:00,VALID,918.345,VALID,0,VALID,92.6326,VALID,0,VALID,18.7922,VALID,85,VALID,0.0259713,
2000-08-28, 01:24:00,VALID,918.355,VALID,0,VALID,93.1234,VALID,-0.0169808,VALID,18.7631,VALID,59,VALID,0,
2000-08-28, 01:25:00,VALID,918.353,VALID,0,VALID,92.9212,VALID,-0.0339617,VALID,18.8125,VALID,80,VALID,0.434416,
2000-08-28, 01:26:00,VALID,918.328,VALID,0,VALID,92.7801,VALID,-0.0339617,VALID,18.7924,VALID,71,VALID,0.589738,
2000-08-28, 01:27:00,VALID,918.294,VALID,0,VALID,92.7458,VALID,0,VALID,18.8017,VALID,93,VALID,0.56764,
2000-08-28, 01:28:00,VALID,918.266,VALID,0,VALID,92.4876,VALID,-0.0169808,VALID,18.8409,VALID,82,VALID,0.767314,
2000-08-28, 01:29:00,VALID,918.25,VALID,0,VALID,92.2511,VALID,-0.0339617,VALID,18.8545,VALID,73,VALID,0.62793,
2000-08-28, 01:30:00,VALID,918.223,VALID,0,VALID,92.2168,VALID,-0.0509425,VALID,18.8603,VALID,67,VALID,0.985814,
2000-08-28, 01:31:00,VALID,918.205,VALID,0,VALID,91.7819,VALID,-0.0169808,VALID,18.938,VALID,90,VALID,0.847873,
2000-08-28, 01:32:00,VALID,918.187,VALID,0,VALID,91.7641,VALID,-0.0679233,VALID,18.9415,VALID,82,VALID,0.670397,
2000-08-28, 01:33:00,VALID,918.186,VALID,0,VALID,91.5873,VALID,0,VALID,18.9383,VALID,102,VALID,0.864654,
2000-08-28, 01:34:00,VALID,918.184,VALID,0,VALID,91.3165,VALID,-0.0169808,VALID,18.9117,VALID,95,VALID,0.75046,
2000-08-28, 01:35:00,VALID,918.202,VALID,0,VALID,91.4551,VALID,0,VALID,18.9085,VALID,101,VALID,0.728125,
2000-08-28, 01:36:00,VALID,918.218,VALID,0,VALID,91.3724,VALID,0,VALID,18.9152,VALID,99,VALID,0.638221,
2000-08-28, 01:37:00,VALID,918.218,VALID,0,VALID,91.3177,VALID,-0.0509425,VALID,18.9221,VALID,106,VALID,0.710732,
2000-08-28, 01:38:00,VALID,918.206,VALID,0,VALID,91.347,VALID,0,VALID,18.9283,VALID,103,VALID,0.654811,
2000-08-28, 01:39:00,VALID,918.199,VALID,0,VALID,91.3127,VALID,0,VALID,18.9117,VALID,93,VALID,0.484375,
2000-08-28, 01:40:00,VALID,918.186,VALID,0,VALID,91.375,VALID,0,VALID,18.8988,VALID,93,VALID,0.351768,
2000-08-28, 01:41:00,VALID,918.17,VALID,0,VALID,91.4856,VALID,-0.0169808,VALID,18.8838,VALID,93,VALID,0.467105,
2000-08-28, 01:42:00,VALID,918.161,VALID,0,VALID,91.5021,VALID,-0.0509425,VALID,18.8381,VALID,90,VALID,0.548986,
2000-08-28, 01:43:00,VALID,918.161,VALID,0,VALID,91.7463,VALID,0,VALID,18.7763,VALID,80,VALID,0.712457,
2000-08-28, 01:44:00,VALID,918.138,VALID,0,VALID,91.6916,VALID,-0.0169808,VALID,18.7641,VALID,78,VALID,0.513889,
2000-08-28, 01:45:00,VALID,918.12,VALID,0,VALID,91.7234,VALID,-0.0509425,VALID,18.7572,VALID,83,VALID,0.484947,
2000-08-28, 01:46:00,VALID,918.114,VALID,0,VALID,91.3127,VALID,-0.0339617,VALID,18.7514,VALID,68,VALID,0.910684,
2000-08-28, 01:47:00,VALID,918.107,VALID,0,VALID,90.9452,VALID,-0.0169808,VALID,18.7897,VALID,84,VALID,0.819901,
2000-08-28, 01:48:00,VALID,918.096,VALID,0,VALID,90.9223,VALID,-0.0509425,VALID,18.8158,VALID,80,VALID,0.634457,
2000-08-28, 01:49:00,VALID,918.085,VALID,0,VALID,90.8676,VALID,-0.0169808,VALID,18.8125,VALID,67,VALID,0.366997,
2000-08-28, 01:50:00,VALID,918.073,VALID,0,VALID,90.6222,VALID,0,VALID,18.819,VALID,69,VALID,0.210115,
2000-08-28, 01:51:00,VALID,918.071,VALID,0,VALID,90.6056,VALID,-0.0169808,VALID,18.8515,VALID,69,VALID,0.129523,
2000-08-28, 01:52:00,VALID,918.069,VALID,0,VALID,90.4505,VALID,0,VALID,18.8319,VALID,93,VALID,0.108073,
2000-08-28, 01:53:00,VALID,918.073,VALID,0,VALID,90.7353,VALID,-0.0169808,VALID,18.819,VALID,129,VALID,0.289485,
2000-08-28, 01:54:00,VALID,918.096,VALID,0,VALID,91.0889,VALID,-0.0339617,VALID,18.7676,VALID,216,VALID,0.253795,
2000-08-28, 01:55:00,VALID,918.098,VALID,0,VALID,91.4576,VALID,-0.0509425,VALID,18.7099,VALID,226,VALID,0.247122,
2000-08-28, 01:56:00,VALID,918.096,VALID,0,VALID,91.6331,VALID,-0.0169808,VALID,18.6543,VALID,253,VALID,0.370144,
2000-08-28, 01:57:00,VALID,918.091,VALID,0,VALID,92.04,VALID,-0.0169808,VALID,18.609,VALID,245,VALID,0.403988,
2000-08-28, 01:58:00,VALID,918.078,VALID,0,VALID,92.48,VALID,0,VALID,18.5474,VALID,240,VALID,0.275549,
2000-08-28, 01:59:00,VALID,918.095,VALID,0,VALID,92.7648,VALID,0.0509425,VALID,18.4916,VALID,240,VALID,0.0646484,
2000-08-28, 02:00:00,VALID,918.102,VALID,0,VALID,92.9581,VALID,0.0679233,VALID,18.4655,VALID,240,VALID,0.052426,
2000-08-28, 02:01:00,VALID,918.104,VALID,0,VALID,93.0344,VALID,0.0849042,VALID,18.4623,VALID,228,VALID,0.00542535,
2000-08-28, 02:02:00,VALID,918.085,VALID,0,VALID,92.8335,VALID,0.101885,VALID,18.4787,VALID,222,VALID,0,
2000-08-28, 02:03:00,VALID,918.072,VALID,0,VALID,92.5868,VALID,0.0339617,VALID,18.4817,VALID,190,VALID,0,
2000-08-28, 02:04:00,VALID,918.069,VALID,0,VALID,92.5741,VALID,0.0849042,VALID,18.4452,VALID,190,VALID,0,
2000-08-28, 02:05:00,VALID,918.078,VALID,0,VALID,92.5804,VALID,0.101885,VALID,18.4593,VALID,190,VALID,0,
2000-08-28, 02:06:00,VALID,918.095,VALID,0,VALID,92.5423,VALID,0.0849042,VALID,18.4725,VALID,190,VALID,0,
2000-08-28, 02:07:00,VALID,918.084,VALID,0,VALID,92.597,VALID,0.0679233,VALID,18.4655,VALID,190,VALID,0,
2000-08-28, 02:08:00,VALID,918.063,VALID,0,VALID,92.8081,VALID,0.101885,VALID,18.4265,VALID,190,VALID,0,
2000-08-28, 02:09:00,VALID,918.017,VALID,0,VALID,93.0001,VALID,0.0679233,VALID,18.3975,VALID,190,VALID,0,
2000-08-28, 02:10:00,VALID,918.005,VALID,0,VALID,93.1399,VALID,0.0509425,VALID,18.3783,VALID,190,VALID,0,
2000-08-28, 02:11:00,VALID,917.986,VALID,0,VALID,93.2875,VALID,0.0849042,VALID,18.388,VALID,171,VALID,0,
2000-08-28, 02:12:00,VALID,917.979,VALID,0,VALID,93.2379,VALID,0.101885,VALID,18.3652,VALID,97,VALID,0,
2000-08-28, 02:13:00,VALID,917.958,VALID,0,VALID,93.3103,VALID,0.0509425,VALID,18.3659,VALID,79,VALID,0,
2000-08-28, 02:14:00,VALID,917.926,VALID,0,VALID,93.5392,VALID,-0.0509425,VALID,18.325,VALID,81,VALID,0,
2000-08-28, 02:15:00,VALID,917.899,VALID,0,VALID,93.6371,VALID,-0.0169808,VALID,18.2927,VALID,81,VALID,0,
2000-08-28, 02:16:00,VALID,917.896,VALID,0,VALID,93.3002,VALID,-0.0679233,VALID,18.3087,VALID,81,VALID,0,
2000-08-28, 02:17:00,VALID,917.897,VALID,0,VALID,93.2913,VALID,-0.0849042,VALID,18.3246,VALID,81,VALID,0,
2000-08-28, 02:18:00,VALID,917.908,VALID,0,VALID,93.2264,VALID,-0.0509425,VALID,18.3384,VALID,79,VALID,0.215666,
2000-08-28, 02:19:01,VALID,917.905,VALID,0,VALID,93.3231,VALID,-0.0339617,VALID,18.3414,VALID,68,VALID,0.299924,
2000-08-28, 02:20:00,VALID,917.885,VALID,0,VALID,93.2709,VALID,0,VALID,18.3896,VALID,65,VALID,0.0433799,
2000-08-28, 02:21:00,VALID,917.866,VALID,0,VALID,93.2188,VALID,-0.0339617,VALID,18.3382,VALID,87,VALID,0.418791,
2000-08-28, 02:22:00,VALID,917.863,VALID,0,VALID,93.2976,VALID,-0.0169808,VALID,18.3057,VALID,88,VALID,0.36849,
2000-08-28, 02:23:00,VALID,917.876,VALID,0,VALID,93.5443,VALID,-0.0849042,VALID,18.26,VALID,88,VALID,0.269426,
2000-08-28, 02:24:00,VALID,917.893,VALID,0,VALID,93.6104,VALID,-0.0169808,VALID,18.2473,VALID,88,VALID,0.0705357,
2000-08-28, 02:25:00,VALID,917.888,VALID,0,VALID,93.5532,VALID,-0.0169808,VALID,18.254,VALID,88,VALID,0,
2000-08-28, 02:26:00,VALID,917.863,VALID,0,VALID,93.5024,VALID,-0.0509425,VALID,18.2701,VALID,88,VALID,0,
2000-08-28, 02:27:00,VALID,917.848,VALID,0,VALID,93.5163,VALID,-0.0169808,VALID,18.2927,VALID,88,VALID,0,
2000-08-28, 02:28:00,VALID,917.848,VALID,0,VALID,93.6562,VALID,-0.0339617,VALID,18.3087,VALID,87,VALID,0,
2000-08-28, 02:29:00,VALID,917.834,VALID,0,VALID,93.5837,VALID,-0.0679233,VALID,18.3543,VALID,79,VALID,0,
2000-08-28, 02:30:00,VALID,917.811,VALID,0,VALID,93.5965,VALID,-0.0509425,VALID,18.3871,VALID,79,VALID,0,
2000-08-28, 02:31:00,VALID,917.803,VALID,0,VALID,93.6397,VALID,-0.0509425,VALID,18.3862,VALID,79,VALID,0,
2000-08-28, 02:32:01,VALID,917.783,VALID,0,VALID,93.5405,VALID,-0.0679233,VALID,18.4026,VALID,79,VALID,0,
2000-08-28, 02:33:00,VALID,917.777,VALID,0,VALID,93.6104,VALID,-0.0849042,VALID,18.4023,VALID,68,VALID,0,
2000-08-28, 02:34:00,VALID,917.764,VALID,0,VALID,93.6613,VALID,-0.0849042,VALID,18.4095,VALID,64,VALID,0,
2000-08-28, 02:35:00,VALID,917.745,VALID,0,VALID,93.8851,VALID,-0.0339617,VALID,18.4249,VALID,29,VALID,0,
2000-08-28, 02:36:00,VALID,917.723,VALID,0,VALID,93.9894,VALID,-0.0509425,VALID,18.4738,VALID,20,VALID,0,
2000-08-28, 02:37:00,VALID,917.681,VALID,0,VALID,94.0797,VALID,-0.0339617,VALID,18.5186,VALID,15,VALID,0,
2000-08-28, 02:38:00,VALID,917.668,VALID,0,VALID,94.3098,VALID,-0.0679233,VALID,18.5514,VALID,2,VALID,0,
2000-08-28, 02:39:00,VALID,917.657,VALID,0,VALID,94.6328,VALID,-0.0509425,VALID,18.5675,VALID,2,VALID,0,
2000-08-28, 02:40:00,VALID,917.659,VALID,0,VALID,94.69,VALID,-0.0339617,VALID,18.5735,VALID,2,VALID,0,
2000-08-28, 02:41:00,VALID,917.649,VALID,0,VALID,94.4433,VALID,-0.0849042,VALID,18.5802,VALID,2,VALID,0,
2000-08-28, 02:42:00,VALID,917.633,VALID,0,VALID,94.1903,VALID,-0.0679233,VALID,18.5869,VALID,2,VALID,0,
2000-08-28, 02:43:00,VALID,917.625,VALID,0,VALID,93.8851,VALID,-0.0509425,VALID,18.5901,VALID,2,VALID,0,
2000-08-28, 02:44:00,VALID,917.632,VALID,0,VALID,93.5736,VALID,-0.0849042,VALID,18.6001,VALID,2,VALID,0,
2000-08-28, 02:45:01,VALID,917.626,VALID,0,VALID,93.5252,VALID,-0.0849042,VALID,18.5998,VALID,2,VALID,0,
2000-08-28, 02:46:00,VALID,917.637,VALID,0,VALID,93.7249,VALID,-0.0509425,VALID,18.6063,VALID,2,VALID,0,
2000-08-28, 02:47:01,VALID,917.646,VALID,0,VALID,93.8559,VALID,-0.101885,VALID,18.6063,VALID,2,VALID,0,
2000-08-28, 02:48:00,VALID,917.66,VALID,0,VALID,93.9271,VALID,-0.0849042,VALID,18.5966,VALID,2,VALID,0,
2000-08-28, 02:49:01,VALID,917.64,VALID,0,VALID,94.0123,VALID,-0.0849042,VALID,18.5837,VALID,2,VALID,0,
2000-08-28, 02:50:01,VALID,917.619,VALID,0,VALID,93.9907,VALID,-0.0509425,VALID,18.5645,VALID,2,VALID,0,
2000-08-28, 02:51:00,VALID,917.612,VALID,0,VALID,94.0491,VALID,-0.0679233,VALID,18.5447,VALID,2,VALID,0,
2000-08-28, 02:52:01,VALID,917.575,VALID,0,VALID,93.8927,VALID,-0.0849042,VALID,18.5225,VALID,2,VALID,0,
2000-08-28, 02:53:00,VALID,917.581,VALID,0,VALID,94.1267,VALID,-0.101885,VALID,18.4999,VALID,2,VALID,0,
2000-08-28, 02:54:00,VALID,917.573,VALID,0,VALID,94.3442,VALID,-0.0849042,VALID,18.4709,VALID,2,VALID,0,
2000-08-28, 02:55:00,VALID,917.567,VALID,0,VALID,94.4065,VALID,-0.0849042,VALID,18.4478,VALID,2,VALID,0,
2000-08-28, 02:56:00,VALID,917.533,VALID,0,VALID,94.7371,VALID,-0.0679233,VALID,18.4351,VALID,2,VALID,0,
2000-08-28, 02:57:01,VALID,917.497,VALID,0,VALID,95.0652,VALID,-0.0169808,VALID,18.4316,VALID,2,VALID,0,
2000-08-28, 02:58:00,VALID,917.454,VALID,0,VALID,95.3462,VALID,-0.0679233,VALID,18.4222,VALID,2,VALID,0,
2000-08-28, 02:59:00,VALID,917.424,VALID,0,VALID,95.1974,VALID,-0.0679233,VALID,18.3931,VALID,2,VALID,0,
2000-08-28, 03:00:00,VALID,917.387,VALID,0,VALID,94.807,VALID,-0.0679233,VALID,18.3576,VALID,2,VALID,0,
2000-08-28, 03:01:00,VALID,917.379,VALID,0,VALID,94.6481,VALID,-0.0509425,VALID,18.2865,VALID,2,VALID,0,
2000-08-28, 03:02:01,VALID,917.371,VALID,0,VALID,94.9278,VALID,-0.0679233,VALID,18.2512,VALID,2,VALID,0,
2000-08-28, 03:03:01,VALID,917.371,VALID,0,VALID,95.3182,VALID,-0.0509425,VALID,18.2185,VALID,49,VALID,0,
2000-08-28, 03:04:00,VALID,917.359,VALID,0,VALID,95.3932,VALID,-0.0679233,VALID,18.1998,VALID,51,VALID,0,
2000-08-28, 03:05:00,VALID,917.34,VALID,0,VALID,95.3729,VALID,-0.0509425,VALID,18.1479,VALID,51,VALID,0,
2000-08-28, 03:06:00,VALID,917.328,VALID,0,VALID,95.5751,VALID,-0.0509425,VALID,18.1057,VALID,54,VALID,0,
2000-08-28, 03:07:00,VALID,917.319,VALID,0,VALID,95.7353,VALID,-0.0339617,VALID,18.0796,VALID,96,VALID,0,
2000-08-28, 03:08:00,VALID,917.337,VALID,0,VALID,95.7785,VALID,-0.0339617,VALID,18.0542,VALID,101,VALID,0,
2000-08-28, 03:09:00,VALID,917.364,VALID,0,VALID,95.9044,VALID,-0.0679233,VALID,18.0447,VALID,101,VALID,0,
2000-08-28, 03:10:00,VALID,917.378,VALID,0,VALID,96.0443,VALID,-0.0339617,VALID,18.0346,VALID,101,VALID,0,
2000-08-28, 03:11:00,VALID,917.395,VALID,0,VALID,96.1104,VALID,0,VALID,18.0378,VALID,101,VALID,0,
2000-08-28, 03:12:00,VALID,917.412,VALID,0,VALID,96.0697,VALID,-0.0679233,VALID,18.054,VALID,101,VALID,0,
2000-08-28, 03:13:00,VALID,917.403,VALID,0,VALID,96.0557,VALID,-0.0339617,VALID,18.0669,VALID,101,VALID,0,
2000-08-28, 03:14:00,VALID,917.388,VALID,0,VALID,95.8904,VALID,-0.0679233,VALID,18.0731,VALID,101,VALID,0,
2000-08-28, 03:15:01,VALID,917.388,VALID,0,VALID,95.7162,VALID,-0.0679233,VALID,18.0734,VALID,115,VALID,0,
2000-08-28, 03:16:00,VALID,917.414,VALID,0,VALID,95.5992,VALID,-0.0509425,VALID,18.0766,VALID,162,VALID,0,
2000-08-28, 03:17:01,VALID,917.441,VALID,0,VALID,95.5153,VALID,-0.0509425,VALID,18.0761,VALID,194,VALID,0,
2000-08-28, 03:18:00,VALID,917.462,VALID,0,VALID,95.6704,VALID,-0.0509425,VALID,18.0833,VALID,219,VALID,0,
2000-08-28, 03:19:01,VALID,917.486,VALID,0,VALID,95.7569,VALID,-0.0509425,VALID,18.0731,VALID,219,VALID,0,
2000-08-28, 03:20:01,VALID,917.514,VALID,0,VALID,95.7811,VALID,-0.0339617,VALID,18.0602,VALID,219,VALID,0,
2000-08-28, 03:21:00,VALID,917.526,VALID,0,VALID,95.6717,VALID,-0.0679233,VALID,18.048,VALID,219,VALID,0,
2000-08-28, 03:22:01,VALID,917.541,VALID,0,VALID,95.5814,VALID,-0.0169808,VALID,18.0249,VALID,219,VALID,0,
2000-08-28, 03:23:00,VALID,917.542,VALID,0,VALID,95.4759,VALID,-0.0509425,VALID,18.0247,VALID,219,VALID,0,
2000-08-28, 03:24:00,VALID,917.526,VALID,0,VALID,95.2495,VALID,-0.0169808,VALID,18.0374,VALID,219,VALID,0,
2000-08-28, 03:25:00,VALID,917.502,VALID,0,VALID,94.938,VALID,-0.0509425,VALID,18.0699,VALID,219,VALID,0,
2000-08-28, 03:26:00,VALID,917.502,VALID,0,VALID,94.7002,VALID,-0.0339617,VALID,18.1022,VALID,219,VALID,0,
2000-08-28, 03:27:01,VALID,917.488,VALID,0,VALID,94.573,VALID,-0.0679233,VALID,18.1317,VALID,219,VALID,0,
2000-08-28, 03:28:00,VALID,917.489,VALID,0,VALID,94.4993,VALID,-0.0509425,VALID,18.1416,VALID,219,VALID,0,
2000-08-28, 03:29:00,VALID,917.48,VALID,0,VALID,94.2564,VALID,-0.0169808,VALID,18.1705,VALID,219,VALID,0,
2000-08-28, 03:30:00,VALID,917.481,VALID,0,VALID,94.278,VALID,-0.0169808,VALID,18.1606,VALID,253,VALID,0,
2000-08-28, 03:31:00,VALID,917.475,VALID,0,VALID,94.4154,VALID,-0.0169808,VALID,18.1834,VALID,331,VALID,0,
2000-08-28, 03:32:01,VALID,917.448,VALID,0,VALID,94.3022,VALID,0,VALID,18.1931,VALID,331,VALID,0,
2000-08-28, 03:33:00,VALID,917.414,VALID,0,VALID,94.4421,VALID,-0.0339617,VALID,18.1959,VALID,20,VALID,0.0878378,
2000-08-28, 03:34:00,VALID,917.388,VALID,0,VALID,94.1674,VALID,-0.0339617,VALID,18.2152,VALID,83,VALID,0.121783,
2000-08-28, 03:35:00,VALID,917.396,VALID,0,VALID,93.9194,VALID,-0.0679233,VALID,18.2095,VALID,95,VALID,0,
2000-08-28, 03:36:00,VALID,917.39,VALID,0,VALID,93.8902,VALID,-0.0679233,VALID,18.1569,VALID,95,VALID,0,
2000-08-28, 03:37:00,VALID,917.376,VALID,0,VALID,93.8622,VALID,-0.0679233,VALID,18.1416,VALID,95,VALID,0,
2000-08-28, 03:38:00,VALID,917.351,VALID,0,VALID,94.1102,VALID,-0.0509425,VALID,18.1123,VALID,100,VALID,0,
2000-08-28, 03:39:00,VALID,917.343,VALID,0,VALID,94.1788,VALID,-0.0339617,VALID,18.1153,VALID,100,VALID,0,